Location: Dos Palmas
(32.4468°N, 116.8732°W)
Time: 00:25:02
(UTC+00:00)

Cosmos 1932 - Pass Details

Date: 20 June 2021
Orbit: 942 x 988 km, 65.0° (Epoch: 01 August)

Event Time Altitude Azimuth Distance (km) Brightness Sun altitude
Rises 09:32:55 0° 330° (NNW) 3,612 7.9 -28.9°
Reaches altitude 10° 09:35:27 10° 329° (NNW) 2,662 7.1 -28.6°
Enters shadow 09:41:37 78° 249° (WSW) 964 4.2 -28.0°
